Wetbulb
58.30 58.29 58.45 58.58 59.13 58.85 59.00 58.95 59.15 59.24 59.22 59.36 59.58 60.29 60.39 60.43 60.10 60.44 55.60 62.57 62.73 67.89 67.12 54.07 58.69 58.80 57.92 54.17 57.47 63.99 54.09 53.26 54.92 56.47 56.90 60.07 61.63 65.23 67.21 66.30 68.73 68.91 67.98 69.25 72.77
57.72 57.67 57.82 57.98 58.41 58.78 58.98 58.89 59.14 59.20 58.94 59.17 59.56 60.37 60.55 60.39 59.93 60.06 67.30 67.70 67.75 66.46 52.52 55.76 58.72 58.00 51.96 52.71 58.76 58.01 51.73 54.45 59.11 59.29 58.54 61.85 62.80 61.53 62.48 65.67 66.00 66.80 69.34 70.85 71.81
57.15 57.20 57.35 57.58 57.69 57.91 58.46 58.56 58.72 58.61 58.72 58.79 59.58 60.54 60.66 59.61 61.13 63.19 68.21 67.53 66.85 63.64 55.18 56.47 59.61 56.99 52.50 53.48 58.96 57.64 55.11 58.38 60.88 62.15 60.41 60.37 61.81 62.83 60.39 60.53 65.21 64.87 67.29 69.51 69.68
56.55 56.75 56.82 57.08 57.15 57.43 57.70 58.14 58.22 58.25 58.25 58.58 59.81 61.05 60.80 58.89 55.16 61.14 69.30 67.31 67.79 61.23 60.51 60.13 58.11 52.85 51.38 51.38 57.50 54.51 57.41 58.72 58.22 57.20 57.51 59.45 61.94 61.49 61.19 60.58 68.41 68.47 69.05 69.36 68.28
56.11 56.13 56.20 56.30 56.51 56.82 57.22 57.28 57.62 57.57 57.86 58.43 60.43 61.25 56.24 54.67 59.89 65.16 68.51 66.86 60.51 60.00 59.85 59.12 54.68 53.75 51.09 52.98 57.96 56.31 57.58 58.38 59.32 58.23 57.35 59.89 58.56 61.62 62.46 63.97 69.65 69.74 69.40 68.63 68.32
55.59 55.44 55.55 55.70 56.12 56.53 56.85 57.24 57.09 57.14 57.65 58.56 61.04 60.60 56.54 52.87 62.34 62.53 57.47 58.22 58.29 58.97 58.64 56.29 55.44 56.29 53.41 52.77 52.85 56.30 56.53 56.25 56.24 57.58 59.72 57.70 59.23 62.57 63.76 67.76 68.19 68.79 68.26 68.87 68.79
55.03 54.99 55.03 55.48 55.74 56.10 56.67 56.65 56.61 57.02 57.51 58.35 61.94 60.73 56.72 50.41 60.67 59.03 58.18 56.25 58.35 58.52 54.26 55.45 57.79 54.90 54.03 52.11 55.29 54.42 52.90 54.14 55.35 56.03 56.98 56.68 54.71 58.59 63.81 67.81 67.24 67.58 68.21 68.76 69.30
54.43 54.58 54.68 55.10 55.27 55.61 55.89 55.92 56.29 57.18 58.25 59.13 62.62 58.08 51.31 61.91 59.72 61.05 59.14 59.46 59.26 56.76 55.21 55.72 57.49 54.58 53.23 54.20 52.36 49.92 48.67 46.36 53.32 56.52 57.04 53.53 47.92 58.24 64.87 65.83 65.40 67.42 67.98 68.40 68.96
54.04 53.95 54.18 54.42 54.90 55.29 54.98 54.88 56.64 58.37 58.93 60.80 57.52 55.63 54.39 63.76 56.94 59.53 60.17 58.64 57.37 56.21 55.24 58.21 54.67 51.01 52.33 47.96 45.03 45.18 42.65 45.47 49.70 56.87 56.07 52.28 49.52 57.57 64.79 65.67 65.32 66.60 67.43 67.89 68.37
53.72 54.00 54.25 54.43 54.57 54.64 54.21 55.18 56.41 57.81 58.95 60.78 62.18 50.14 55.73 56.70 56.21 56.82 60.09 60.28 57.41 54.27 53.92 54.60 51.11 47.45 46.50 44.35 39.94 42.88 43.86 46.38 49.63 54.28 53.97 51.02 49.75 53.84 59.70 65.66 65.92 66.52 67.12 67.31 67.65
53.68 53.80 54.06 54.13 54.17 53.86 51.29 49.10 49.83 49.99 51.76 51.80 51.76 52.30 55.34 59.15 57.72 55.29 59.11 58.58 56.20 52.55 46.22 49.74 46.61 43.82 46.41 47.48 48.74 47.80 45.91 45.59 49.10 54.46 51.51 49.27 50.05 51.99 57.66 62.15 62.77 64.37 66.02 66.30 66.97
52.89 53.20 53.57 53.68 53.19 53.29 49.26 48.08 51.57 50.49 46.22 52.60 54.88 55.76 58.27 59.06 54.24 56.06 59.25 53.69 52.99 48.08 49.87 46.49 44.16 49.18 51.63 51.57 49.34 48.15 45.78 44.69 48.29 53.12 49.98 48.47 49.97 52.06 54.10 62.23 63.61 65.62 65.67 66.26 66.47
52.62 53.22 53.08 52.72 52.53 51.12 48.16 50.06 54.10 52.22 44.27 49.70 52.06 51.41 52.63 55.52 54.47 54.10 55.84 54.36 51.47 48.79 48.37 45.88 48.44 53.79 52.70 50.23 47.77 43.71 43.26 45.14 46.01 50.03 48.27 49.16 47.31 48.77 53.14 62.15 64.26 66.77 67.29 67.59 67.10
52.83 52.88 52.41 51.31 49.59 47.46 49.12 52.63 50.66 51.62 40.51 46.02 48.22 51.09 52.41 53.48 50.46 57.42 56.27 55.34 52.09 48.68 50.42 48.45 51.56 51.48 50.77 50.38 47.98 41.26 49.13 51.97 50.09 45.39 41.32 47.68 39.15 45.81 49.66 58.48 62.85 65.04 67.01 67.21 69.31
52.50 52.40 52.00 51.43 44.70 45.48 51.58 52.50 51.22 50.57 32.59 51.17 47.93 53.79 51.61 50.65 51.56 52.79 57.19 54.85 50.82 50.34 50.31 48.87 50.85 49.63 49.81 49.86 49.59 46.09 52.03 50.47 50.02 44.12 41.93 43.69 41.16 44.47 52.58 54.36 56.35 62.80 66.23 67.65 70.20
52.05 51.76 51.22 49.41 46.32 48.80 52.26 49.95 49.48 41.10 35.34 47.83 50.00 48.19 47.21 48.13 50.82 52.87 54.52 55.43 55.46 52.06 50.70 50.67 54.89 52.99 50.86 52.01 50.77 53.10 49.21 47.20 45.25 41.44 37.72 42.76 43.83 43.21 48.27 53.18 58.77 63.42 66.59 68.13 69.36
51.12 50.76 48.92 49.92 46.23 49.55 49.24 47.17 38.66 35.11 46.92 44.38 44.68 46.80 45.48 45.39 47.86 49.17 51.45 49.18 46.51 43.48 44.38 50.06 51.60 52.71 53.93 49.58 50.54 48.67 42.20 36.77 36.94 37.48 37.46 44.23 43.13 44.98 51.54 56.06 60.56 59.69 65.69 68.25 69.62
50.26 50.28 48.25 49.31 47.70 48.79 46.87 42.29 33.65 43.10 42.89 47.00 45.94 44.91 43.99 45.29 45.64 47.46 49.47 46.72 48.70 48.28 45.08 43.54 43.91 50.63 53.10 49.15 47.15 45.42 43.04 37.83 33.92 34.63 38.92 44.72 40.24 47.53 55.48 57.14 60.68 64.85 64.35 61.94 65.85
49.54 46.42 46.40 48.42 50.17 47.99 43.48 35.43 37.61 43.86 48.56 47.08 46.04 43.40 43.55 46.20 46.19 45.51 47.23 47.53 49.41 48.58 44.17 43.44 45.82 53.80 53.63 51.99 50.29 45.61 42.66 45.67 40.53 38.73 38.04 40.40 47.36 51.61 55.54 57.28 62.09 62.83 63.65 64.28 66.62
43.52 44.41 45.44 51.71 50.31 45.33 40.10 37.60 40.81 48.19 48.66 46.97 42.56 44.91 42.12 45.21 43.17 42.50 44.65 49.83 50.64 51.54 50.11 46.78 42.99 49.16 53.15 52.32 51.28 47.21 48.14 41.23 38.89 34.98 34.66 39.96 43.28 44.76 50.81 53.30 58.44 56.95 58.52 60.15 66.27
45.97 45.23 50.17 51.58 48.21 42.20 36.08 37.47 43.31 48.17 48.63 45.22 43.35 44.12 45.77 46.10 45.34 41.13 43.60 49.72 52.44 52.27 50.15 46.84 44.44 46.99 50.78 46.53 46.20 46.22 43.85 42.19 40.73 38.79 35.49 34.46 39.64 49.24 51.59 53.79 54.08 56.02 60.34 61.40 62.38
42.71 43.39 51.16 50.18 40.10 37.26 36.70 41.40 45.59 45.25 46.59 45.06 46.46 45.46 45.90 47.65 46.26 46.92 44.08 47.49 52.39 52.35 48.04 48.09 44.21 41.95 45.64 51.33 52.28 47.37 45.40 42.24 40.17 38.26 39.17 39.00 41.35 53.21 53.29 54.66 55.81 57.66 62.26 63.21 62.59
39.44 45.37 50.67 47.74 34.95 34.58 39.00 43.52 44.25 43.58 44.19 44.09 45.44 48.00 47.15 46.37 44.19 48.52 48.96 51.04 53.63 51.50 49.76 48.39 41.88 39.12 42.81 45.38 49.19 47.08 48.14 43.99 41.80 39.70 38.68 37.17 39.52 52.98 54.57 55.96 59.06 59.20 59.56 60.32 61.60
41.82 43.19 43.65 44.03 40.37 38.80 36.64 41.63 43.63 49.91 46.30 46.34 45.83 47.04 44.98 44.35 45.85 44.93 47.10 51.81 51.88 51.84 58.96 53.69 44.02 42.12 39.24 42.26 46.50 45.74 48.18 48.40 43.73 39.49 39.46 41.11 44.22 49.84 52.52 54.46 57.46 57.57 59.57 59.73 60.50
43.65 44.28 43.08 39.26 39.78 39.71 38.65 41.93 41.97 42.85 47.98 46.53 44.33 45.65 42.95 39.83 43.12 46.19 48.88 50.18 52.19 54.12 50.05 47.54 43.52 44.42 45.30 48.72 48.37 48.45 48.99 49.40 46.12 45.41 42.72 46.50 46.22 50.11 52.71 53.49 57.43 57.00 57.23 57.79 58.02
41.30 40.06 41.98 41.01 44.03 43.39 40.60 40.18 43.04 44.40 45.70 44.74 44.50 47.19 48.60 45.14 45.27 45.04 47.99 47.47 47.08 51.30 45.46 45.57 42.92 44.28 43.20 50.73 49.92 48.63 50.13 50.34 49.89 51.24 47.32 49.04 48.60 52.15 54.73 54.28 57.67 57.83 60.09 60.41 61.84
44.29 44.96 42.27 41.75 41.10 41.29 43.56 45.48 46.46 46.52 48.66 52.35 50.84 47.64 48.21 49.84 50.89 50.25 47.44 47.93 48.44 48.10 48.04 47.82 43.46 40.92 38.21 48.05 48.68 43.25 47.99 48.97 51.07 53.52 50.84 45.16 48.99 53.42 54.29 54.66 54.42 57.28 58.93 59.60 60.76
MSLP
1018.11 1017.73 1017.40 1017.04 1016.84 1016.49 1015.99 1015.43 1015.01 1014.44 1014.09 1014.00 1013.48 1012.96 1012.40 1012.08 1011.05 1010.90 1009.68 1007.97 1007.60 1007.42 1007.17 1006.77 1006.46 1006.32 1006.53 1006.81 1006.58 1006.88 1007.50 1008.36 1007.58 1007.10 1006.65 1005.52 1005.24 1005.65 1005.72 1006.54 1007.03 1007.43 1008.34 1009.46 1010.91
1018.53 1018.14 1017.63 1017.19 1016.87 1016.41 1015.99 1015.41 1014.98 1014.40 1014.08 1014.06 1013.51 1012.88 1012.40 1011.93 1011.44 1009.89 1007.51 1007.44 1007.32 1007.30 1007.02 1006.89 1006.71 1006.65 1006.57 1006.66 1006.73 1007.56 1008.42 1007.46 1006.37 1005.85 1006.11 1005.54 1005.01 1005.28 1006.01 1006.64 1007.66 1008.05 1008.68 1009.64 1010.96
1018.60 1018.14 1017.84 1017.39 1016.84 1016.37 1015.82 1015.28 1014.89 1014.43 1014.07 1013.89 1013.32 1012.65 1012.23 1012.09 1011.26 1008.37 1007.24 1007.31 1007.36 1007.28 1007.05 1007.02 1006.96 1006.93 1006.78 1006.36 1006.40 1007.00 1007.34 1006.39 1005.81 1005.26 1005.16 1005.16 1005.02 1005.42 1006.14 1007.04 1007.34 1008.14 1008.91 1009.66 1010.74
1018.62 1018.24 1017.91 1017.43 1016.89 1016.21 1015.71 1015.20 1014.74 1014.34 1014.08 1013.58 1013.01 1012.54 1012.17 1012.02 1010.13 1007.48 1007.19 1007.19 1007.35 1007.39 1007.25 1006.99 1006.84 1006.96 1006.88 1006.66 1005.90 1006.25 1005.69 1005.34 1004.39 1004.08 1003.78 1004.72 1004.69 1005.28 1005.54 1006.16 1006.78 1007.59 1008.41 1009.45 1010.62
1018.81 1018.33 1017.84 1017.31 1016.75 1016.14 1015.54 1015.16 1014.54 1014.04 1013.79 1013.41 1012.76 1012.39 1012.12 1010.99 1008.40 1006.90 1007.12 1007.23 1007.20 1007.39 1007.27 1007.19 1006.79 1006.52 1006.62 1006.34 1005.88 1005.98 1004.97 1004.67 1004.16 1004.01 1003.65 1003.50 1004.32 1004.75 1005.39 1006.10 1007.43 1008.07 1008.84 1009.53 1010.44
1018.75 1018.34 1017.78 1017.19 1016.60 1016.14 1015.52 1014.89 1014.37 1013.77 1013.34 1013.17 1012.79 1012.51 1011.86 1009.78 1006.65 1006.72 1006.87 1007.24 1007.23 1007.37 1006.87 1006.69 1006.30 1006.05 1006.04 1006.17 1005.92 1005.65 1004.69 1004.46 1004.16 1003.86 1003.60 1003.70 1004.08 1004.20 1005.51 1006.27 1007.24 1007.89 1008.46 1009.21 1009.78
1018.80 1018.29 1017.73 1017.11 1016.58 1015.96 1015.25 1014.62 1013.99 1013.24 1012.92 1012.78 1012.50 1012.28 1011.04 1007.94 1006.41 1006.62 1006.87 1006.91 1006.79 1006.85 1006.67 1006.07 1005.91 1006.18 1006.25 1006.06 1005.33 1004.96 1004.81 1004.59 1004.03 1003.49 1003.68 1003.78 1004.37 1004.69 1005.20 1005.99 1006.77 1007.64 1008.17 1008.82 1009.34
1018.95 1018.46 1017.86 1017.15 1016.38 1015.51 1014.79 1014.02 1013.25 1012.68 1012.45 1012.34 1012.17 1011.83 1009.57 1006.59 1006.39 1006.77 1006.79 1006.70 1006.42 1006.27 1006.17 1005.80 1005.67 1006.07 1006.50 1006.28 1005.86 1005.83 1005.73 1005.70 1004.27 1003.80 1003.31 1003.90 1004.21 1004.54 1005.29 1005.93 1006.88 1007.38 1007.90 1008.47 1009.04
1019.11 1018.45 1017.82 1017.11 1016.25 1015.38 1014.51 1013.37 1012.47 1011.91 1011.99 1011.97 1011.96 1011.16 1008.59 1006.25 1006.42 1006.12 1006.34 1006.43 1006.32 1006.03 1005.88 1005.68 1005.89 1006.57 1006.74 1007.11 1007.44 1007.19 1006.68 1005.99 1004.81 1003.69 1003.30 1003.94 1004.31 1004.29 1005.15 1005.83 1006.57 1007.17 1007.65 1008.23 1008.96
1018.90 1018.07 1017.40 1016.72 1016.03 1015.22 1014.01 1012.49 1011.81 1011.61 1011.79 1011.54 1011.25 1010.82 1008.02 1006.33 1005.61 1005.53 1005.77 1006.02 1006.37 1006.22 1006.45 1006.28 1006.89 1007.38 1007.63 1008.11 1008.30 1007.70 1006.94 1005.57 1004.79 1003.78 1003.52 1003.93 1004.22 1003.99 1004.91 1005.54 1006.31 1006.86 1007.61 1008.21 1008.90
1018.82 1018.03 1017.29 1016.50 1015.86 1015.38 1014.24 1012.57 1012.20 1011.74 1011.22 1010.52 1009.94 1008.99 1007.05 1005.84 1005.26 1005.45 1005.54 1005.91 1006.11 1006.58 1007.08 1006.89 1007.65 1007.80 1007.38 1007.69 1007.20 1006.99 1006.33 1005.71 1004.56 1003.60 1003.82 1004.01 1004.08 1004.08 1004.52 1005.61 1006.42 1006.91 1007.52 1008.23 1008.89
1018.82 1018.21 1017.31 1016.29 1015.54 1015.22 1015.06 1013.76 1011.95 1011.71 1010.68 1009.29 1008.54 1007.91 1006.77 1006.26 1006.00 1005.30 1005.46 1006.17 1006.45 1007.03 1007.22 1007.57 1007.32 1006.72 1006.58 1006.38 1006.41 1005.88 1005.97 1005.53 1004.68 1004.01 1004.45 1004.77 1004.68 1004.31 1004.94 1005.20 1005.60 1006.61 1007.53 1008.13 1008.98
1018.73 1017.99 1017.18 1016.03 1015.04 1014.67 1014.18 1012.63 1010.84 1010.94 1010.71 1008.42 1007.21 1006.50 1005.99 1005.86 1005.67 1005.24 1005.57 1005.98 1006.50 1007.12 1007.20 1007.39 1006.37 1005.95 1006.06 1005.70 1005.62 1005.76 1005.78 1005.53 1005.54 1005.24 1005.28 1005.60 1005.88 1005.56 1005.42 1005.32 1006.07 1006.51 1007.04 1007.92 1008.60
1018.58 1017.92 1017.22 1015.82 1014.84 1014.86 1013.31 1011.64 1011.04 1010.62 1010.92 1008.06 1006.33 1004.88 1005.08 1005.38 1005.16 1004.63 1005.01 1005.93 1006.45 1006.66 1006.72 1006.75 1005.39 1005.36 1005.27 1004.96 1005.17 1005.59 1005.35 1005.75 1005.92 1006.54 1006.97 1006.81 1008.08 1006.73 1006.34 1006.31 1006.49 1007.03 1007.62 1008.23 1008.91
1018.40 1017.87 1017.27 1016.90 1016.22 1014.90 1012.73 1011.61 1010.94 1010.93 1010.40 1006.13 1004.88 1003.40 1004.02 1005.17 1004.62 1004.17 1004.43 1005.46 1005.96 1006.04 1006.64 1006.07 1005.41 1005.15 1004.70 1004.43 1004.78 1005.38 1005.34 1006.06 1006.64 1007.67 1008.31 1008.26 1008.82 1007.63 1007.28 1007.58 1007.82 1008.07 1008.21 1008.43 1008.88
1018.09 1017.74 1017.32 1016.69 1016.34 1013.95 1012.75 1011.84 1011.49 1011.82 1009.09 1005.69 1004.14 1004.11 1005.03 1005.14 1004.70 1004.45 1004.75 1005.21 1005.47 1006.10 1006.59 1006.11 1005.20 1004.67 1004.09 1003.95 1004.38 1005.07 1005.98 1007.16 1008.39 1009.32 1010.36 1009.02 1009.44 1008.88 1008.29 1007.70 1007.75 1007.67 1008.10 1009.13 1009.86
1017.48 1017.09 1017.27 1016.56 1014.73 1013.24 1012.79 1012.83 1012.96 1011.70 1008.39 1006.21 1005.09 1004.55 1004.78 1005.22 1005.14 1005.17 1005.51 1005.84 1006.27 1006.93 1007.08 1006.19 1005.34 1004.39 1003.77 1004.22 1004.73 1005.51 1007.67 1009.51 1010.89 1011.45 1011.08 1009.64 1009.76 1009.20 1008.22 1007.74 1007.22 1008.78 1009.70 1010.73 1009.80
1016.61 1015.78 1015.25 1014.89 1013.78 1013.75 1013.60 1013.83 1012.99 1010.42 1008.62 1006.61 1005.78 1005.36 1005.45 1005.27 1005.28 1005.48 1005.99 1006.38 1006.59 1007.06 1007.68 1007.17 1005.97 1004.48 1003.89 1004.46 1005.33 1006.24 1007.85 1009.87 1011.29 1012.21 1011.50 1010.11 1009.68 1009.13 1008.77 1008.33 1008.65 1009.48 1009.64 1012.75 1012.72
1015.85 1015.09 1014.80 1012.87 1013.33 1014.16 1014.38 1014.23 1012.35 1010.08 1007.98 1007.35 1006.09 1005.65 1005.63 1005.52 1005.29 1005.67 1006.07 1006.44 1006.24 1006.66 1007.56 1007.32 1006.17 1004.82 1004.49 1004.29 1005.00 1006.27 1007.76 1008.81 1010.55 1011.92 1012.07 1011.06 1010.09 1009.47 1009.17 1008.93 1009.67 1010.82 1011.24 1011.49 1010.78
1016.45 1015.43 1013.81 1011.71 1012.79 1013.91 1014.44 1013.79 1011.64 1009.35 1008.16 1007.42 1007.05 1006.13 1005.43 1005.30 1005.77 1005.80 1005.79 1005.52 1005.68 1005.63 1006.12 1007.20 1007.06 1005.23 1004.01 1003.76 1004.78 1005.52 1006.91 1009.03 1010.83 1012.08 1012.48 1011.74 1010.86 1010.23 1010.04 1009.75 1010.59 1011.11 1012.03 1012.33 1012.06
1016.39 1015.12 1012.10 1011.68 1012.76 1014.12 1014.37 1012.90 1010.70 1008.93 1008.49 1008.06 1007.33 1006.63 1006.13 1005.73 1005.52 1005.55 1005.39 1004.78 1004.66 1004.95 1005.78 1006.85 1007.22 1005.93 1005.24 1005.06 1005.13 1005.85 1007.00 1008.87 1010.60 1011.78 1012.38 1012.51 1011.56 1010.30 1010.44 1010.84 1010.67 1010.88 1011.39 1011.56 1011.40
1017.14 1015.35 1012.20 1012.06 1013.60 1014.21 1013.96 1012.03 1010.67 1009.17 1008.45 1008.05 1006.95 1006.39 1006.11 1005.68 1005.38 1005.42 1004.86 1004.15 1003.87 1004.18 1005.59 1006.23 1007.15 1007.28 1006.60 1005.30 1005.19 1005.91 1006.80 1008.48 1010.64 1011.73 1011.91 1012.04 1011.36 1010.49 1010.63 1010.86 1010.95 1011.19 1011.36 1012.02 1011.06
1018.58 1015.78 1012.75 1012.49 1013.91 1014.43 1013.21 1011.90 1010.67 1009.57 1008.58 1008.12 1007.36 1006.43 1006.18 1005.92 1005.66 1005.57 1005.13 1004.32 1003.68 1003.98 1005.01 1005.96 1007.37 1007.97 1007.16 1006.56 1005.90 1006.06 1006.81 1007.73 1009.33 1010.45 1011.28 1011.98 1011.35 1010.92 1011.03 1011.04 1011.20 1010.78 1010.39 1009.85 1010.22
1018.95 1016.87 1014.46 1013.79 1014.05 1014.02 1013.36 1012.05 1010.71 1008.99 1008.14 1007.78 1007.44 1006.43 1006.42 1006.17 1006.04 1006.03 1005.79 1005.08 1004.66 1004.52 1005.10 1005.59 1007.51 1007.68 1007.94 1007.60 1007.20 1006.99 1006.95 1007.33 1008.72 1009.97 1010.45 1010.72 1010.76 1011.07 1011.87 1012.29 1012.52 1012.06 1010.22 1009.37 1009.50
1018.68 1017.37 1016.08 1015.31 1014.61 1013.99 1013.34 1012.11 1010.89 1009.75 1007.81 1007.09 1007.11 1007.12 1007.17 1007.18 1007.21 1007.36 1006.64 1006.00 1005.47 1005.48 1005.59 1006.51 1007.96 1008.02 1007.90 1007.43 1007.21 1007.11 1007.12 1007.44 1008.29 1008.92 1009.64 1009.47 1010.28 1010.12 1011.34 1012.35 1012.61 1012.29 1012.26 1011.76 1011.99
1018.65 1018.11 1016.78 1016.06 1014.81 1013.49 1013.09 1012.03 1010.76 1009.64 1008.71 1007.39 1007.27 1007.42 1007.61 1008.54 1008.75 1008.49 1007.73 1007.35 1007.03 1006.95 1006.92 1007.76 1008.54 1008.35 1008.38 1007.74 1007.54 1007.43 1007.20 1007.45 1008.00 1008.68 1009.12 1009.62 1010.11 1010.42 1012.12 1013.07 1013.68 1013.38 1013.12 1012.53 1012.63
1019.19 1018.24 1017.84 1016.51 1015.36 1014.27 1013.29 1011.65 1010.32 1009.52 1008.60 1008.25 1007.39 1007.81 1008.54 1008.70 1008.62 1008.37 1008.23 1007.97 1007.50 1007.64 1008.19 1008.80 1009.30 1009.96 1009.72 1008.82 1008.34 1008.06 1007.56 1007.89 1008.97 1009.68 1010.16 1010.90 1011.10 1011.84 1012.67 1012.82 1013.23 1013.55 1012.54 1011.65 1011.49
Wind_Speed
17 17 17 16 16 16 17 17 17 17 16 16 15 14 13 15 17 2 4 5 3 6 6 7 3 6 6 3 1 2 6 3 2 1 6 5 10 1 5 13 2 6 9 17 20
16 16 17 17 17 16 17 17 17 17 17 16 14 14 11 12 4 4 6 5 1 4 3 4 6 9 4 4 4 4 4 6 5 4 3 6 16 9 6 6 6 11 17 18 20
16 16 17 17 18 18 17 17 17 17 16 16 14 13 11 8 3 5 7 5 3 4 2 2 4 2 3 3 3 6 9 9 9 14 7 10 7 3 13 1 10 20 22 19 17
18 17 17 18 18 19 19 18 18 17 16 16 14 12 9 1 2 0 7 5 2 2 3 3 3 0 2 3 7 3 4 6 5 4 4 10 6 5 5 8 15 22 22 17 16
18 18 19 19 19 20 20 20 19 18 15 15 13 10 2 3 6 4 6 3 2 1 3 1 3 2 3 4 2 2 4 4 9 8 1 5 7 7 5 12 17 18 18 18 14
19 20 20 20 20 19 20 20 19 18 16 13 11 9 1 2 2 8 6 1 3 2 4 3 4 2 4 3 0 6 2 2 4 2 2 5 3 11 5 19 20 21 19 17 17
20 21 21 21 21 21 21 20 20 19 17 12 9 4 1 11 4 8 9 4 4 4 4 6 3 7 6 8 4 7 1 6 8 6 5 3 3 2 16 20 21 19 18 17 17
20 21 22 22 23 23 23 23 23 20 15 9 5 2 7 3 5 4 4 6 7 9 3 7 4 3 2 4 9 7 6 3 9 4 8 7 7 5 18 20 18 20 18 16 13
20 21 22 22 23 23 23 26 23 16 7 6 1 1 9 10 6 8 7 7 4 5 6 5 3 1 6 4 6 6 4 5 9 4 5 4 6 4 16 18 18 17 16 15 11
21 22 22 22 22 22 27 24 10 7 3 3 3 3 5 4 3 5 7 5 4 3 5 1 4 2 3 6 3 6 5 4 5 7 4 3 3 3 14 18 19 16 11 13 14
21 22 23 23 22 20 15 6 6 5 2 5 4 4 7 5 3 2 7 1 2 4 3 3 4 6 9 8 8 6 1 3 3 8 4 6 4 4 6 13 11 9 13 14 13
22 22 23 24 23 21 2 2 5 2 9 9 13 11 14 5 5 3 7 4 2 4 2 5 6 12 7 7 7 1 2 6 5 5 3 3 5 7 7 14 17 16 14 16 8
23 22 23 26 28 2 2 6 9 6 0 10 7 7 7 8 8 7 9 6 2 4 6 6 10 5 6 6 3 3 3 4 6 3 2 2 8 6 4 6 10 13 16 16 17
21 22 22 29 3 6 5 6 8 2 5 10 6 9 5 6 6 9 9 7 4 9 4 6 11 8 7 2 3 3 2 3 4 5 2 5 5 9 4 3 11 12 15 15 14
21 21 20 11 5 3 6 14 10 7 2 4 5 2 9 10 2 3 7 4 7 10 4 9 5 3 3 5 5 9 2 3 4 5 6 6 4 8 1 5 3 3 11 13 15
22 19 19 2 1 8 11 11 6 7 7 5 5 7 8 4 6 4 4 5 3 3 3 10 6 3 8 5 4 1 7 9 7 4 4 7 7 7 2 8 8 10 10 12 13
25 19 8 4 6 5 8 6 6 4 6 4 3 8 9 8 11 4 4 7 5 2 5 7 6 6 2 1 7 7 8 5 6 6 7 5 3 8 10 5 7 11 10 8 11
27 24 5 7 6 5 5 7 3 6 7 6 3 2 8 7 8 6 6 6 4 5 2 3 8 5 2 7 6 4 9 7 4 2 6 7 4 5 6 9 12 13 23 9 25
24 2 2 6 8 3 7 4 9 7 2 7 9 5 7 5 5 7 9 9 10 8 8 4 7 4 6 6 10 3 2 6 6 1 3 4 1 5 6 8 14 15 15 23 2
3 4 5 3 8 5 6 6 7 5 7 6 1 4 7 10 6 7 8 8 7 12 9 6 4 6 10 7 2 7 5 4 5 1 1 5 3 6 5 8 10 9 5 1 5
3 4 5 9 5 6 5 8 5 4 7 4 5 4 4 2 4 6 9 5 12 11 10 7 5 12 0 1 7 3 2 6 6 6 6 1 8 5 3 3 3 3 3 7 9
4 2 3 5 5 1 3 4 8 6 5 5 5 4 3 4 2 2 11 10 6 9 9 10 7 6 3 7 2 3 4 6 7 4 3 5 7 4 8 8 6 5 1 5 15
3 4 3 6 2 3 6 6 4 5 6 5 6 2 1 2 4 3 6 6 2 5 9 6 1 0 8 9 7 2 1 4 5 3 4 6 8 5 4 7 3 2 3 5 8
2 3 5 5 2 2 3 6 5 5 11 6 6 3 5 5 5 4 6 4 5 4 3 7 4 9 8 6 4 3 6 5 5 3 3 7 4 5 7 5 3 2 3 8 8
2 3 2 3 5 6 4 4 6 5 5 5 3 3 3 3 5 6 5 6 6 11 5 6 5 3 4 2 2 1 5 8 5 4 4 11 11 14 11 10 14 14 9 8 13
3 4 5 4 6 4 8 5 6 7 4 6 5 2 9 6 2 3 3 5 0 7 5 6 1 2 5 4 7 4 8 8 2 6 1 5 5 1 9 3 15 15 12 11 6
4 4 3 5 6 6 5 7 4 2 3 5 6 7 8 3 3 5 2 1 2 4 4 4 3 4 3 4 5 5 4 3 6 4 3 3 5 9 9 5 8 15 11 6 4
Wind_Direction
11 5 1 357 351 346 338 339 335 339 340 331 327 318 319 323 309 147 250 217 198 346 332 302 341 303 129 254 153 343 71 5 291 112 263 207 109 16 90 136 196 153 128 148 137
8 3 356 352 346 344 336 335 331 336 333 328 325 317 321 343 314 268 236 142 302 336 338 344 333 353 358 195 165 108 56 236 220 173 209 244 134 160 100 105 55 85 117 137 130
3 1 353 349 344 339 336 332 330 331 328 326 326 318 323 337 316 248 137 164 195 264 248 335 304 286 340 323 189 184 193 228 257 234 230 187 189 96 129 57 166 145 147 149 132
358 356 350 344 341 337 333 330 325 325 325 326 326 317 321 220 151 239 146 186 178 285 305 337 348 134 247 259 239 213 202 202 263 220 127 162 177 121 186 188 157 150 152 151 143
354 350 346 342 338 334 329 325 321 319 321 324 321 330 325 344 250 146 143 203 165 249 255 288 306 356 324 271 290 335 276 222 270 289 102 116 160 180 203 127 144 143 153 159 156
352 346 342 339 336 329 325 321 317 311 313 320 313 319 305 281 131 149 152 150 256 224 281 251 253 265 262 287 5 244 341 250 254 311 244 122 54 121 119 140 151 156 166 168 167
349 344 339 336 332 328 324 318 310 307 303 308 310 298 256 236 188 170 156 210 208 185 286 292 345 54 336 315 326 303 356 357 305 280 202 139 80 213 150 153 157 167 172 174 176
347 341 336 333 330 328 323 315 305 297 292 283 306 273 253 241 141 171 180 291 266 254 225 270 11 359 182 296 355 10 51 359 282 306 229 106 255 146 162 158 169 175 179 179 178
342 338 333 331 328 326 319 308 301 288 254 272 287 53 274 311 200 202 190 227 323 291 286 288 39 247 355 54 6 357 260 239 297 275 111 138 246 200 172 176 176 182 182 177 169
340 336 332 330 328 327 320 304 292 314 177 214 258 337 287 255 209 184 209 226 266 250 337 204 54 2 22 68 219 266 296 287 220 263 98 295 231 265 173 176 184 187 179 167 162
340 335 330 327 325 328 339 356 10 358 47 200 215 269 284 274 129 184 212 200 11 34 215 287 61 236 239 189 217 240 262 301 270 253 135 205 247 240 140 171 174 157 159 161 164
338 334 329 325 320 320 232 15 223 241 304 247 248 246 257 285 286 213 123 147 153 247 333 356 252 245 239 272 221 4 326 306 313 11 65 264 271 296 160 176 167 156 150 154 141
336 333 331 323 317 315 251 254 287 339 41 289 220 209 224 147 218 227 135 185 184 257 239 182 249 318 243 270 31 310 252 286 208 304 61 92 329 326 336 131 152 158 151 155 154
333 332 333 327 352 325 272 307 328 174 44 274 218 244 184 176 265 202 181 148 213 229 234 230 264 246 262 186 140 287 251 270 62 61 275 65 279 314 310 92 152 145 160 157 151
329 330 332 326 292 308 297 330 326 56 3 233 199 173 151 168 224 239 150 168 215 243 58 260 298 291 233 228 127 235 293 41 24 58 28 332 60 270 26 75 2 147 178 159 158
323 325 332 112 259 249 310 314 49 48 252 304 157 146 101 219 240 26 141 148 219 245 249 254 265 230 210 231 185 193 44 29 40 68 18 264 137 287 206 185 193 184 147 154 153
318 313 305 292 236 337 324 39 53 147 314 280 200 161 174 189 232 161 179 174 186 89 309 331 295 284 208 92 353 71 54 359 356 15 220 310 76 236 290 233 196 70 66 24 153
318 311 229 209 247 354 29 54 145 224 262 300 305 82 191 159 232 191 169 191 269 113 37 200 319 213 252 168 191 187 142 152 207 210 265 316 295 292 314 307 99 107 106 71 290
318 316 253 247 205 100 73 89 207 216 279 0 328 185 237 227 192 157 179 195 196 164 173 174 270 301 300 199 132 240 133 195 126 25 45 280 38 322 360 67 98 88 122 177 25
340 342 266 141 136 77 80 223 233 235 3 5 318 6 218 207 169 155 182 195 205 199 159 229 294 261 298 102 73 143 170 41 9 82 274 298 269 211 252 141 84 87 128 302 247
25 11 264 119 81 52 171 230 286 303 16 16 318 314 322 67 206 198 208 231 196 210 163 151 135 275 41 63 174 324 8 66 119 133 167 256 279 241 214 31 92 131 104 85 42
344 33 265 95 66 168 213 223 334 312 46 281 256 216 263 330 65 346 216 202 210 199 184 195 162 234 197 294 213 128 207 130 121 259 185 149 270 278 148 178 174 199 201 43 49
355 277 323 90 142 275 287 291 261 276 279 285 313 1 317 307 43 59 349 343 289 115 163 170 209 33 349 354 357 114 155 154 108 73 210 131 260 182 154 197 168 161 312 134 37
33 4 324 43 138 158 319 280 269 285 259 220 257 11 15 2 38 314 348 333 353 80 128 101 118 151 181 194 202 357 336 3 105 102 242 220 190 235 192 121 65 306 89 102 231
132 274 186 291 290 232 184 277 316 318 276 195 14 84 303 23 27 7 332 337 16 346 46 91 105 125 150 139 90 256 346 340 6 241 166 280 188 207 175 151 173 161 154 189 226
62 32 338 280 291 253 165 254 235 278 249 293 157 14 75 94 111 333 357 20 17 334 55 360 174 81 6 35 55 4 330 343 308 358 328 61 282 129 77 129 161 193 211 198 198
319 328 109 288 336 19 1 277 287 313 310 350 249 99 68 324 250 237 264 167 351 110 49 64 95 68 272 345 44 14 306 289 74 5 314 221 325 35 31 14 155 184 181 145 118